User: anonymous   Login
Location: Azul
(36.7830°S, 59.8500°W)
Time: 09:14:33
(UTC-03:00)
Language:

QB50P2 - Orbit

View from above orbital plane
View from above orbital plane
View from above satellite
View from above satellite

Ground track
Ground track

The orbit data is extracted from the following two-line orbital elements,

1 40032U 14033Y   21294.58638639  .00000613  00000-0  70911-4 0  9998
2 40032  97.9194 221.8282 0013012 117.3243 242.9300 14.89088187398063
Epoch (UTC): 21 October 2021 14:04:23
Eccentricity: 0.0013012
inclination: 97.9194°
perigee height: 592 km
apogee height: 610 km
right ascension of ascending node: 221.8282°
argument of perigee: 117.3243°
revolutions per day: 14.89088187
mean anomaly at epoch: 242.9300°
orbit number at epoch: 39806

The dashed part of the orbit path shows where the satellite is in the earth's shadow,  

DLR